EZY86QU EGKK-LFMN

Flight info

Callsign EZY86QU
Flight time 1h 43m
Altitude 23000
Route BOGNA L612 XAMAB/N0430F330 UL612 VEULE DCT KOTAP DCT KETEX DCT KOTIS DCT KUKOR DCT UTUVA DCT LERGA DCT LIQID DCT LATAM DCT TUNUR DCT NISAR
Aircraft A320/M-SDE2E3FGHIJ1RWXYZ/LB1

Departure

Time 2026-04-15 14:36
Airport London Gatwick Airport (EGKK)

Arrival

Time 2026-04-15 16:19
Airport Nice-Côte d'Azur Airport (LFMN)
Time Latitude Longitude Altitude Speed Heading
2026-04-15 14:13 51.15781 -0.17884 204 ft 0 kts 347°
2026-04-15 14:23 51.15769 -0.17880 207 ft 4 kts 347°
2026-04-15 14:23 51.15742 -0.17870 214 ft 4 kts 347°
2026-04-15 14:23 51.15725 -0.17864 209 ft 4 kts
2026-04-15 14:23 51.15710 -0.17882 205 ft 3 kts 76°
2026-04-15 14:24 51.15705 -0.17912 209 ft 2 kts 77°
2026-04-15 14:24 51.15705 -0.17914 209 ft 0 kts 77°
2026-04-15 14:26 51.15706 -0.17907 212 ft 4 kts 77°
2026-04-15 14:26 51.15719 -0.17808 208 ft 12 kts 78°
2026-04-15 14:27 51.15735 -0.17688 213 ft 10 kts 78°
2026-04-15 14:27 51.15750 -0.17586 215 ft 9 kts 78°
2026-04-15 14:27 51.15723 -0.17506 208 ft 9 kts 152°
2026-04-15 14:27 51.15655 -0.17476 208 ft 11 kts 167°
2026-04-15 14:28 51.15573 -0.17448 212 ft 13 kts 168°
2026-04-15 14:28 51.15478 -0.17415 204 ft 15 kts 167°
2026-04-15 14:28 51.15447 -0.17404 216 ft 0 kts 167°
2026-04-15 14:29 51.15444 -0.17403 212 ft 3 kts 167°
2026-04-15 14:30 51.15388 -0.17383 206 ft 11 kts 168°
2026-04-15 14:30 51.15300 -0.17353 212 ft 14 kts 169°
2026-04-15 14:30 51.15208 -0.17275 207 ft 16 kts 145°
2026-04-15 14:30 51.15192 -0.17109 213 ft 15 kts 78°
2026-04-15 14:31 51.15198 -0.17063 205 ft 0 kts 78°
2026-04-15 14:31 51.15204 -0.17019 208 ft 7 kts 78°
2026-04-15 14:31 51.15212 -0.16955 204 ft 0 kts 77°
2026-04-15 14:32 51.15220 -0.16904 208 ft 10 kts 77°
2026-04-15 14:32 51.15222 -0.16867 204 ft 0 kts 90°
2026-04-15 14:34 51.15164 -0.16788 212 ft 14 kts 179°
2026-04-15 14:34 51.15109 -0.16898 206 ft 0 kts 258°
2026-04-15 14:35 51.15109 -0.16900 209 ft 2 kts 258°
2026-04-15 14:35 51.15063 -0.17228 204 ft 66 kts 257°
2026-04-15 14:35 51.14965 -0.17937 210 ft 110 kts 257°
2026-04-15 14:36 51.14752 -0.19396 240 ft 156 kts 257°
2026-04-15 14:36 51.14566 -0.21010 958 ft 149 kts 253°
2026-04-15 14:36 51.14359 -0.22652 1570 ft 158 kts 251°
2026-04-15 14:36 51.14089 -0.24547 1881 ft 182 kts 252°
2026-04-15 14:37 51.13758 -0.26795 2432 ft 197 kts 252°
2026-04-15 14:37 51.13489 -0.28668 3220 ft 197 kts 251°
2026-04-15 14:37 51.13187 -0.30804 4088 ft 199 kts 252°
2026-04-15 14:37 51.12882 -0.32975 4949 ft 202 kts 252°
2026-04-15 14:38 51.12570 -0.35208 5802 ft 205 kts 253°
2026-04-15 14:38 51.12256 -0.37443 6610 ft 208 kts 252°
2026-04-15 14:38 51.11924 -0.39697 7416 ft 209 kts 248°
2026-04-15 14:38 51.11090 -0.41546 8163 ft 209 kts 213°
2026-04-15 14:39 51.09666 -0.42110 8955 ft 220 kts 184°
2026-04-15 14:39 51.08128 -0.41939 9813 ft 223 kts 182°
2026-04-15 14:39 51.06543 -0.41730 10292 ft 239 kts 182°
2026-04-15 14:39 51.04812 -0.41504 10687 ft 256 kts 181°
2026-04-15 14:40 51.03015 -0.41265 11383 ft 261 kts 181°
2026-04-15 14:40 51.01192 -0.41021 12173 ft 264 kts 182°
2026-04-15 14:40 50.99350 -0.40775 12953 ft 267 kts 182°
2026-04-15 14:40 50.97491 -0.40530 13727 ft 269 kts 182°
2026-04-15 14:41 50.95615 -0.40286 14419 ft 272 kts 182°
2026-04-15 14:41 50.93721 -0.40041 15107 ft 274 kts 181°
2026-04-15 14:41 50.91817 -0.39798 15799 ft 276 kts 181°
2026-04-15 14:41 50.89895 -0.39555 16497 ft 278 kts 181°
2026-04-15 14:42 50.87961 -0.39312 17190 ft 280 kts 180°
2026-04-15 14:42 50.86011 -0.39068 17842 ft 283 kts 180°
2026-04-15 14:42 50.84043 -0.38662 18481 ft 290 kts 171°
2026-04-15 14:42 50.82135 -0.37495 19054 ft 300 kts 158°
2026-04-15 14:43 50.80360 -0.35693 19658 ft 304 kts 154°
2026-04-15 14:43 50.78591 -0.33844 20268 ft 305 kts 155°
2026-04-15 14:43 50.76819 -0.32003 20861 ft 306 kts 155°
2026-04-15 14:43 50.75037 -0.30161 21446 ft 307 kts 155°
2026-04-15 14:44 50.73244 -0.28313 22044 ft 308 kts 156°
2026-04-15 14:44 50.71451 -0.26467 22638 ft 309 kts 156°
2026-04-15 14:44 50.69642 -0.24607 23018 ft 313 kts 156°
2026-04-15 14:44 50.67780 -0.22686 23081 ft 327 kts 155°
2026-04-15 14:45 50.65868 -0.20687 23082 ft 331 kts 155°
2026-04-15 14:45 50.63949 -0.18659 23068 ft 333 kts 155°
2026-04-15 14:45 50.62022 -0.16621 23079 ft 334 kts 155°
2026-04-15 14:45 50.60091 -0.14580 23082 ft 335 kts 155°
2026-04-15 14:46 50.58160 -0.12547 23084 ft 335 kts 155°
2026-04-15 14:46 50.56220 -0.10515 23084 ft 335 kts 155°
2026-04-15 14:46 50.54280 -0.08492 23084 ft 335 kts 155°
2026-04-15 14:46 50.52339 -0.06475 23084 ft 334 kts 155°
2026-04-15 14:47 50.50397 -0.04459 23086 ft 334 kts 155°
2026-04-15 14:47 50.48458 -0.02444 23087 ft 334 kts 155°
2026-04-15 14:47 50.46490 -0.00398 23047 ft 335 kts 155°
2026-04-15 14:47 50.44561 0.01600 23082 ft 343 kts 155°
2026-04-15 14:48 50.42527 0.03693 23223 ft 355 kts 155°
2026-04-15 14:48 50.40423 0.05855 23341 ft 367 kts 155°
2026-04-15 14:48 50.38256 0.08082 23483 ft 379 kts 155°
2026-04-15 14:48 50.36024 0.10385 23620 ft 389 kts 154°
2026-04-15 14:49 50.33740 0.12747 23744 ft 398 kts 154°
2026-04-15 14:49 50.31404 0.15161 23870 ft 406 kts 154°
2026-04-15 14:49 50.29034 0.17607 24205 ft 407 kts 154°
2026-04-15 14:49 50.26700 0.20030 24908 ft 400 kts 154°
2026-04-15 14:50 50.24391 0.22424 25465 ft 396 kts 154°
2026-04-15 14:50 50.22098 0.24793 25962 ft 395 kts 155°
2026-04-15 14:50 50.19807 0.27148 26442 ft 393 kts 155°
2026-04-15 14:50 50.17522 0.29494 26841 ft 394 kts 155°
2026-04-15 14:51 50.15231 0.31844 27251 ft 394 kts 155°
2026-04-15 14:51 50.12939 0.34195 27722 ft 394 kts 155°
2026-04-15 14:51 50.10660 0.36532 28197 ft 393 kts 155°
2026-04-15 14:51 50.08377 0.38869 28680 ft 392 kts 155°
2026-04-15 14:52 50.06091 0.41205 28922 ft 396 kts 155°
2026-04-15 14:52 50.03764 0.43573 29081 ft 403 kts 155°
2026-04-15 14:52 50.01397 0.45980 29162 ft 409 kts 155°
2026-04-15 14:52 49.98996 0.48429 29363 ft 415 kts 154°
2026-04-15 14:53 49.96579 0.50897 29640 ft 416 kts 154°
2026-04-15 14:53 49.94151 0.53374 29936 ft 419 kts 154°
2026-04-15 14:53 49.91716 0.55853 30262 ft 420 kts 154°
2026-04-15 14:53 49.89276 0.58334 30595 ft 419 kts 154°
2026-04-15 14:54 49.86837 0.60812 30947 ft 419 kts 155°
2026-04-15 14:54 49.84406 0.63295 31303 ft 419 kts 154°
2026-04-15 14:54 49.82010 0.65864 31652 ft 419 kts 153°
2026-04-15 14:54 49.79640 0.68510 32004 ft 419 kts 152°
2026-04-15 14:55 49.77293 0.71176 32370 ft 419 kts 152°
2026-04-15 14:55 49.74940 0.73844 32723 ft 418 kts 152°
2026-04-15 14:55 49.72590 0.76483 33004 ft 418 kts 152°
2026-04-15 14:55 49.70230 0.79108 33305 ft 419 kts 153°
2026-04-15 14:56 49.67860 0.81722 33648 ft 418 kts 153°
2026-04-15 14:56 49.65490 0.84323 34011 ft 417 kts 153°
2026-04-15 14:56 49.63127 0.86905 34320 ft 417 kts 153°
2026-04-15 14:56 49.60763 0.89491 34596 ft 417 kts 153°
2026-04-15 14:57 49.58401 0.92077 34802 ft 417 kts 152°
2026-04-15 14:57 49.56032 0.94671 35058 ft 418 kts 152°
2026-04-15 14:57 49.53661 0.97260 35273 ft 418 kts 152°
2026-04-15 14:57 49.51291 0.99851 35490 ft 418 kts 152°
2026-04-15 14:58 49.48910 1.02451 35669 ft 420 kts 152°
2026-04-15 14:58 49.46527 1.05050 35874 ft 421 kts 152°
2026-04-15 14:58 49.44136 1.07655 36077 ft 422 kts 152°
2026-04-15 14:59 49.39345 1.12861 36140 ft 421 kts 152°
2026-04-15 14:59 49.34564 1.18037 36138 ft 421 kts 152°
2026-04-15 15:00 49.29743 1.23252 36120 ft 421 kts 152°
2026-04-15 15:00 49.24945 1.28420 36142 ft 422 kts 152°
2026-04-15 15:01 49.20135 1.33575 36126 ft 422 kts 151°
2026-04-15 15:01 49.15321 1.38741 36141 ft 423 kts 151°
2026-04-15 15:02 49.10512 1.43906 36145 ft 423 kts 152°
2026-04-15 15:02 49.05710 1.49036 36123 ft 423 kts 152°
2026-04-15 15:03 49.00866 1.54192 36132 ft 424 kts 152°
2026-04-15 15:03 48.96028 1.59323 36137 ft 424 kts 152°
2026-04-15 15:04 48.91183 1.64454 36147 ft 425 kts 152°
2026-04-15 15:04 48.86304 1.69620 36147 ft 425 kts 152°
2026-04-15 15:05 48.81454 1.74743 36129 ft 425 kts 152°
2026-04-15 15:05 48.76605 1.79846 36145 ft 425 kts 152°
2026-04-15 15:06 48.70074 1.86709 36164 ft 425 kts 152°
2026-04-15 15:06 48.65209 1.91790 36177 ft 425 kts 152°
2026-04-15 15:07 48.60315 1.96901 36455 ft 424 kts 152°
2026-04-15 15:07 48.57891 1.99433 36718 ft 424 kts 152°
2026-04-15 15:07 48.55468 2.01957 36973 ft 423 kts 152°
2026-04-15 15:08 48.53038 2.04482 37146 ft 424 kts 152°
2026-04-15 15:08 48.50595 2.07013 37187 ft 427 kts 152°
2026-04-15 15:08 48.45681 2.12099 37187 ft 429 kts 152°
2026-04-15 15:09 48.40763 2.17189 37163 ft 429 kts 152°
2026-04-15 15:09 48.35840 2.22281 37189 ft 430 kts 152°
2026-04-15 15:10 48.30907 2.27341 37191 ft 429 kts 153°
2026-04-15 15:10 48.25613 2.31079 37193 ft 414 kts 170°
2026-04-15 15:11 48.20020 2.33302 37171 ft 414 kts 171°
2026-04-15 15:11 48.14481 2.35500 37180 ft 415 kts 171°
2026-04-15 15:12 48.08888 2.37980 37200 ft 418 kts 167°
2026-04-15 15:12 48.03380 2.40821 37208 ft 419 kts 166°
2026-04-15 15:13 47.97872 2.43669 37197 ft 419 kts 167°
2026-04-15 15:13 47.92350 2.46429 37193 ft 419 kts 167°
2026-04-15 15:14 47.86775 2.49165 37192 ft 419 kts 167°
2026-04-15 15:14 47.81236 2.51886 37188 ft 419 kts 167°
2026-04-15 15:15 47.75690 2.54615 37166 ft 420 kts 167°
2026-04-15 15:15 47.70114 2.57351 37178 ft 422 kts 167°
2026-04-15 15:16 47.64534 2.60088 37185 ft 423 kts 167°
2026-04-15 15:16 47.58952 2.62822 37185 ft 422 kts 167°
2026-04-15 15:17 47.53370 2.65544 37172 ft 422 kts 167°
2026-04-15 15:17 47.47785 2.68259 37169 ft 422 kts 167°
2026-04-15 15:18 47.42162 2.70989 37175 ft 423 kts 167°
2026-04-15 15:18 47.36575 2.73695 37167 ft 423 kts 167°
2026-04-15 15:19 47.30980 2.76393 37153 ft 423 kts 167°
2026-04-15 15:19 47.25375 2.79091 37168 ft 424 kts 167°
2026-04-15 15:20 47.19760 2.81792 37176 ft 425 kts 167°
2026-04-15 15:20 47.14137 2.84500 37160 ft 425 kts 167°
2026-04-15 15:21 47.08513 2.87195 37160 ft 426 kts 167°
2026-04-15 15:21 47.02867 2.89886 37154 ft 427 kts 167°
2026-04-15 15:22 46.97197 2.92589 37173 ft 429 kts 167°
2026-04-15 15:22 46.91522 2.95297 37160 ft 430 kts 167°
2026-04-15 15:23 46.85827 2.97997 37169 ft 431 kts 167°
2026-04-15 15:23 46.80116 3.00699 37176 ft 431 kts 167°
2026-04-15 15:24 46.74405 3.03395 37185 ft 432 kts 167°
2026-04-15 15:24 46.68682 3.06097 37193 ft 433 kts 167°
2026-04-15 15:25 46.62955 3.08800 37199 ft 432 kts 167°
2026-04-15 15:25 46.57229 3.11488 37206 ft 432 kts 167°
2026-04-15 15:26 46.51514 3.14231 37187 ft 433 kts 165°
2026-04-15 15:26 46.45854 3.17278 37185 ft 435 kts 163°
2026-04-15 15:27 46.40206 3.20430 37190 ft 435 kts 163°
2026-04-15 15:27 46.34537 3.23518 37171 ft 436 kts 164°
2026-04-15 15:28 46.28840 3.26561 37162 ft 437 kts 164°
2026-04-15 15:28 46.23118 3.29603 37170 ft 439 kts 164°
2026-04-15 15:29 46.17385 3.32656 37174 ft 440 kts 163°
2026-04-15 15:29 46.11643 3.35713 37166 ft 440 kts 163°
2026-04-15 15:30 46.05897 3.38766 37170 ft 441 kts 163°
2026-04-15 15:30 46.00130 3.41815 37178 ft 442 kts 164°
2026-04-15 15:31 45.94356 3.44864 37188 ft 442 kts 163°
2026-04-15 15:31 45.88585 3.47913 37184 ft 442 kts 163°
2026-04-15 15:32 45.82782 3.50815 37188 ft 441 kts 166°
2026-04-15 15:32 45.76908 3.53315 37188 ft 440 kts 168°
2026-04-15 15:33 45.71021 3.55721 37166 ft 440 kts 168°
2026-04-15 15:33 45.65141 3.58193 37167 ft 441 kts 167°
2026-04-15 15:34 45.59254 3.60733 37168 ft 442 kts 167°
2026-04-15 15:34 45.53364 3.63278 37170 ft 443 kts 167°
2026-04-15 15:35 45.47463 3.65799 37163 ft 443 kts 167°
2026-04-15 15:35 45.41541 3.68312 37166 ft 444 kts 167°
2026-04-15 15:36 45.35616 3.70819 37170 ft 444 kts 167°
2026-04-15 15:36 45.29729 3.73560 37159 ft 449 kts 158°
2026-04-15 15:37 45.27008 3.75766 37170 ft 453 kts 147°
2026-04-15 15:37 45.24588 3.78643 37179 ft 457 kts 136°
2026-04-15 15:37 45.20799 3.85916 37168 ft 461 kts 123°
2026-04-15 15:38 45.17889 3.92320 37177 ft 461 kts 124°
2026-04-15 15:38 45.14389 3.99954 37177 ft 462 kts 124°
2026-04-15 15:39 45.10886 4.07583 37172 ft 462 kts 124°
2026-04-15 15:39 45.07377 4.15214 37168 ft 463 kts 124°
2026-04-15 15:40 45.03854 4.22822 37166 ft 463 kts 126°
2026-04-15 15:40 44.99641 4.29685 37165 ft 462 kts 133°
2026-04-15 15:41 44.95296 4.36363 37165 ft 462 kts 133°
2026-04-15 15:41 44.90953 4.43020 37151 ft 461 kts 133°
2026-04-15 15:42 44.86602 4.49686 37147 ft 462 kts 133°
2026-04-15 15:42 44.82248 4.56344 37149 ft 462 kts 133°
2026-04-15 15:43 44.77886 4.62986 37147 ft 462 kts 133°
2026-04-15 15:43 44.73518 4.69615 37146 ft 462 kts 133°
2026-04-15 15:44 44.69147 4.76241 37145 ft 462 kts 133°
2026-04-15 15:44 44.64773 4.82857 37141 ft 462 kts 133°
2026-04-15 15:45 44.60451 4.89547 37089 ft 463 kts 131°
2026-04-15 15:45 44.58328 4.92958 36519 ft 466 kts 130°
2026-04-15 15:45 44.56217 4.96391 35952 ft 464 kts 130°
2026-04-15 15:46 44.54082 4.99859 35379 ft 462 kts 130°
2026-04-15 15:46 44.51977 5.03251 34817 ft 461 kts 130°
2026-04-15 15:46 44.49863 5.06628 34206 ft 461 kts 130°
2026-04-15 15:46 44.47745 5.09993 33780 ft 463 kts 130°
2026-04-15 15:47 44.45623 5.13357 33465 ft 469 kts 130°
2026-04-15 15:47 44.43456 5.16780 33111 ft 471 kts 130°
2026-04-15 15:47 44.41279 5.20211 32745 ft 471 kts 130°
2026-04-15 15:47 44.39080 5.23679 32389 ft 469 kts 130°
2026-04-15 15:48 44.36822 5.26950 32035 ft 467 kts 137°
2026-04-15 15:48 44.34314 5.29813 31477 ft 465 kts 141°
2026-04-15 15:48 44.31776 5.32589 30960 ft 461 kts 141°
2026-04-15 15:48 44.29281 5.35300 30441 ft 458 kts 140°
2026-04-15 15:49 44.26751 5.38040 29875 ft 455 kts 141°
2026-04-15 15:49 44.24263 5.40733 29371 ft 450 kts 141°
2026-04-15 15:49 44.21798 5.43401 28873 ft 446 kts 141°
2026-04-15 15:49 44.19362 5.46040 28523 ft 438 kts 140°
2026-04-15 15:50 44.16992 5.48608 28226 ft 428 kts 140°
2026-04-15 15:50 44.14657 5.51140 27794 ft 422 kts 140°
2026-04-15 15:50 44.12357 5.53642 27319 ft 418 kts 140°
2026-04-15 15:50 44.10073 5.56125 26851 ft 415 kts 140°
2026-04-15 15:51 44.07804 5.58584 26378 ft 411 kts 140°
2026-04-15 15:51 44.05554 5.61014 25910 ft 408 kts 140°
2026-04-15 15:51 44.03316 5.63424 25448 ft 405 kts 140°
2026-04-15 15:51 44.01098 5.65811 25008 ft 402 kts 140°
2026-04-15 15:52 43.98900 5.68177 24568 ft 399 kts 140°
2026-04-15 15:52 43.96712 5.70532 24134 ft 396 kts 140°
2026-04-15 15:52 43.94545 5.72861 23721 ft 393 kts 140°
2026-04-15 15:52 43.92388 5.75178 23222 ft 391 kts 140°
2026-04-15 15:53 43.90246 5.77474 22757 ft 388 kts 140°
2026-04-15 15:53 43.88120 5.79747 22305 ft 385 kts 140°
2026-04-15 15:53 43.85989 5.82027 21393 ft 387 kts 140°
2026-04-15 15:53 43.83856 5.84307 20861 ft 378 kts 140°
2026-04-15 15:54 43.81788 5.86520 20499 ft 375 kts 140°
2026-04-15 15:54 43.79731 5.88721 20090 ft 372 kts 140°
2026-04-15 15:54 43.77684 5.90905 19668 ft 370 kts 140°
2026-04-15 15:54 43.75652 5.93069 19244 ft 368 kts 140°
2026-04-15 15:55 43.73623 5.95224 18841 ft 366 kts 140°
2026-04-15 15:55 43.71606 5.97367 18427 ft 365 kts 140°
2026-04-15 15:55 43.69602 5.99499 18092 ft 360 kts 140°
2026-04-15 15:55 43.67619 6.01607 17569 ft 360 kts 140°
2026-04-15 15:56 43.65639 6.03708 17154 ft 358 kts 140°
2026-04-15 15:56 43.63670 6.05791 16762 ft 356 kts 140°
2026-04-15 15:56 43.61725 6.07878 16367 ft 353 kts 137°
2026-04-15 15:56 43.60053 6.10311 16062 ft 345 kts 124°
2026-04-15 15:57 43.58812 6.13087 15833 ft 336 kts 113°
2026-04-15 15:57 43.57947 6.16051 15524 ft 332 kts 108°
2026-04-15 15:57 43.57139 6.19017 15180 ft 330 kts 108°
2026-04-15 15:57 43.56329 6.21977 14828 ft 328 kts 108°
2026-04-15 15:58 43.55536 6.24857 14589 ft 314 kts 109°
2026-04-15 15:58 43.54771 6.27612 14264 ft 304 kts 109°
2026-04-15 15:58 43.54022 6.30308 13766 ft 299 kts 109°
2026-04-15 15:58 43.53280 6.32978 13183 ft 297 kts 109°
2026-04-15 15:59 43.52545 6.35619 12605 ft 294 kts 109°
2026-04-15 15:59 43.51819 6.38236 12230 ft 290 kts 108°
2026-04-15 15:59 43.51098 6.40850 12103 ft 292 kts 109°
2026-04-15 15:59 43.50214 6.43364 11971 ft 293 kts 121°
2026-04-15 16:00 43.48935 6.45574 11825 ft 296 kts 133°
2026-04-15 16:00 43.47668 6.47771 11592 ft 291 kts 115°
2026-04-15 16:00 43.47044 6.50364 11343 ft 285 kts 96°
2026-04-15 16:00 43.46806 6.53070 11104 ft 284 kts 94°
2026-04-15 16:01 43.46581 6.55769 10855 ft 283 kts 94°
2026-04-15 16:01 43.46361 6.58412 10607 ft 271 kts 94°
2026-04-15 16:01 43.46148 6.60941 10375 ft 263 kts 94°
2026-04-15 16:01 43.45939 6.63430 10137 ft 260 kts 94°
2026-04-15 16:02 43.45735 6.65891 9912 ft 257 kts 94°
2026-04-15 16:02 43.45530 6.68338 9782 ft 257 kts 93°
2026-04-15 16:02 43.45319 6.70813 9651 ft 257 kts 94°
2026-04-15 16:02 43.45111 6.73259 9521 ft 258 kts 94°
2026-04-15 16:03 43.44906 6.75702 9399 ft 257 kts 94°
2026-04-15 16:03 43.44701 6.78144 9256 ft 256 kts 95°
2026-04-15 16:03 43.44494 6.80586 9136 ft 257 kts 94°
2026-04-15 16:03 43.44284 6.83022 9014 ft 257 kts 94°
2026-04-15 16:04 43.44074 6.85459 8885 ft 255 kts 94°
2026-04-15 16:04 43.43865 6.87877 8758 ft 254 kts 94°
2026-04-15 16:04 43.43657 6.90293 8629 ft 254 kts 94°
2026-04-15 16:04 43.43449 6.92701 8501 ft 254 kts 94°
2026-04-15 16:05 43.43239 6.95108 8375 ft 254 kts 94°
2026-04-15 16:05 43.43027 6.97518 8247 ft 253 kts 95°
2026-04-15 16:05 43.42811 6.99922 8121 ft 253 kts 95°
2026-04-15 16:05 43.42595 7.02325 7996 ft 253 kts 95°
2026-04-15 16:06 43.42383 7.04719 7980 ft 251 kts 95°
2026-04-15 16:06 43.42173 7.07119 8000 ft 253 kts 95°
2026-04-15 16:06 43.41980 7.09519 8001 ft 252 kts 90°
2026-04-15 16:06 43.42058 7.11919 7986 ft 251 kts 79°
2026-04-15 16:07 43.42457 7.14242 7852 ft 249 kts 71°
2026-04-15 16:07 43.42930 7.16530 7727 ft 249 kts 72°
2026-04-15 16:07 43.43865 7.21147 7473 ft 249 kts 72°
2026-04-15 16:08 43.44322 7.23411 7353 ft 248 kts 72°
2026-04-15 16:08 43.44789 7.25730 7226 ft 248 kts 73°
2026-04-15 16:08 43.45250 7.28036 7102 ft 248 kts 73°
2026-04-15 16:08 43.45704 7.30308 6971 ft 248 kts 73°
2026-04-15 16:09 43.46154 7.32563 6861 ft 248 kts 73°
2026-04-15 16:09 43.46618 7.34883 6729 ft 248 kts 73°
2026-04-15 16:09 43.46860 7.37230 6601 ft 249 kts 86°
2026-04-15 16:09 43.46890 7.39615 6352 ft 249 kts 91°
2026-04-15 16:10 43.46795 7.41986 6087 ft 247 kts 93°
2026-04-15 16:10 43.46673 7.44342 5841 ft 246 kts 93°
2026-04-15 16:10 43.46548 7.46682 5566 ft 244 kts 94°
2026-04-15 16:10 43.46469 7.48217 5371 ft 243 kts 93°
2026-04-15 16:11 43.46309 7.51307 4970 ft 240 kts 93°
2026-04-15 16:11 43.46232 7.52823 4771 ft 239 kts 94°
2026-04-15 16:11 43.46253 7.55079 4490 ft 234 kts 77°
2026-04-15 16:11 43.46893 7.57078 4286 ft 226 kts 52°
2026-04-15 16:12 43.48070 7.58450 4098 ft 221 kts 27°
2026-04-15 16:12 43.49539 7.58969 3990 ft 219 kts
2026-04-15 16:12 43.51030 7.58571 3971 ft 222 kts 337°
2026-04-15 16:12 43.52296 7.57291 3965 ft 227 kts 312°
2026-04-15 16:13 43.53327 7.55638 3971 ft 228 kts 311°
2026-04-15 16:13 43.54362 7.53980 3973 ft 229 kts 312°
2026-04-15 16:13 43.55404 7.52318 3958 ft 230 kts 312°
2026-04-15 16:13 43.56445 7.50657 3803 ft 229 kts 312°
2026-04-15 16:14 43.57485 7.48996 3657 ft 228 kts 312°
2026-04-15 16:14 43.58521 7.47342 3503 ft 228 kts 312°
2026-04-15 16:14 43.59558 7.45685 3302 ft 227 kts 310°
2026-04-15 16:14 43.60585 7.44038 3071 ft 226 kts 310°
2026-04-15 16:15 43.61557 7.42333 2800 ft 226 kts 306°
2026-04-15 16:15 43.62467 7.40579 2506 ft 225 kts 304°
2026-04-15 16:15 43.63346 7.38836 2208 ft 214 kts 304°
2026-04-15 16:15 43.64178 7.37174 1925 ft 204 kts 303°
2026-04-15 16:16 43.64953 7.35630 1698 ft 190 kts 303°
2026-04-15 16:16 43.65683 7.34186 1434 ft 176 kts 303°
2026-04-15 16:16 43.66364 7.32842 1261 ft 160 kts 302°
2026-04-15 16:16 43.66981 7.31618 1041 ft 151 kts 302°
2026-04-15 16:17 43.67558 7.30472 1056 ft 143 kts 302°
2026-04-15 16:17 43.68117 7.29339 1077 ft 143 kts 299°
2026-04-15 16:17 43.68561 7.28130 1024 ft 139 kts 288°
2026-04-15 16:17 43.68802 7.26845 853 ft 138 kts 277°
2026-04-15 16:18 43.68807 7.25506 765 ft 133 kts 250°
2026-04-15 16:18 43.68225 7.24488 564 ft 137 kts 218°
2026-04-15 16:18 43.67626 7.23743 323 ft 134 kts 223°
2026-04-15 16:18 43.66838 7.22681 84 ft 131 kts 224°
2026-04-15 16:19 43.66537 7.22268 31 ft 125 kts 224°
2026-04-15 16:19 43.65981 7.21501 20 ft 51 kts 225°
2026-04-15 16:19 43.65747 7.21180 23 ft 42 kts 225°
2026-04-15 16:19 43.65630 7.20993 23 ft 18 kts 258°
2026-04-15 16:20 43.65714 7.20884 24 ft 13 kts 348°
2026-04-15 16:20 43.65787 7.20865 21 ft 12 kts 351°
2026-04-15 16:20 43.65866 7.20849 21 ft 11 kts 351°
2026-04-15 16:20 43.65936 7.20833 21 ft 10 kts 351°
2026-04-15 16:21 43.65999 7.20819 21 ft 9 kts 351°
2026-04-15 16:21 43.66056 7.20806 22 ft 8 kts 351°
2026-04-15 16:21 43.66107 7.20794 21 ft 7 kts 351°
2026-04-15 16:21 43.66153 7.20784 21 ft 6 kts 351°
2026-04-15 16:22 43.66193 7.20775 21 ft 6 kts 352°
2026-04-15 16:22 43.66255 7.20762 21 ft 13 kts 351°
2026-04-15 16:22 43.66310 7.20832 22 ft 11 kts 77°
2026-04-15 16:22 43.66321 7.20916 21 ft 0 kts 81°
2026-04-15 16:23 43.66321 7.20917 21 ft 1 kts 81°
2026-04-15 16:23 43.66361 7.20945 21 ft 9 kts 354°
2026-04-15 16:23 43.66385 7.20940 21 ft 0 kts 351°
2026-04-15 16:29 43.66391 7.20939 21 ft 0 kts 351°